| time (UTC) | temp C | wind direction | speed KPH | gust KPH | rain 1hr cm | rain 24hr cm | rain mn cm | humidity % | barometer mb |
| 20260906201357 | 40 | 129 | 4.8 | 8.0 | 0.00 | 0.00 | 0.00 | 34 | 780.8 |
| 20260906201340 | 40 | 162 | 4.8 | 11.3 | 0.00 | 0.00 | 0.00 | 35 | 982.9 |
| 20260906200357 | 39 | 220 | 3.2 | 4.8 | 0.00 | 0.00 | 0.00 | 34 | 780.8 |
| 20260906200340 | 40 | 305 | 12.9 | 12.9 | 0.00 | 0.00 | 0.00 | 34 | 983.1 |
| 20260906195357 | 39 | 131 | 4.8 | 8.0 | 0.00 | 0.00 | 0.00 | 33 | 780.8 |
| 20260906195340 | 40 | 63 | 11.3 | 17.7 | 0.00 | 0.00 | 0.00 | 34 | 983.1 |
| 20260906194357 | 39 | 239 | 4.8 | 9.7 | 0.00 | 0.00 | 0.00 | 34 | 780.8 |
| 20260906194339 | 40 | 226 | 0.0 | 8.0 | 0.00 | 0.00 | 0.00 | 35 | 983.3 |
| 20260906193357 | 38 | 321 | 4.8 | 8.0 | 0.00 | 0.00 | 0.00 | 35 | 780.6 |
| 20260906193318 | 38 | 290 | 9.7 | 9.7 | 0.00 | 0.00 | 0.00 | 35 | 983.3 |
| 20260906192357 | 38 | 136 | 3.2 | 6.4 | 0.00 | 0.00 | 0.00 | 35 | 780.7 |
| 20260906192257 | 40 | 175 | 4.8 | 8.0 | 0.00 | 0.00 | 0.00 | 35 | 983.6 |
| 20260906191357 | 38 | 87 | 8.0 | 11.3 | 0.00 | 0.00 | 0.00 | 36 | 780.7 |
| 20260906190357 | 38 | 182 | 4.8 | 8.0 | 0.00 | 0.00 | 0.00 | 36 | 780.7 |
| 20260906190235 | 40 | 100 | 6.4 | 12.9 | 0.00 | 0.00 | 0.00 | 35 | 983.7 |
| 20260906185356 | 38 | 51 | 8.0 | 11.3 | 0.00 | 0.00 | 0.00 | 36 | 780.6 |
| 20260906185235 | 40 | 340 | 8.0 | 12.9 | 0.00 | 0.00 | 0.00 | 35 | 983.8 |
| 20260906184356 | 38 | 66 | 6.4 | 14.5 | 0.00 | 0.00 | 0.00 | 35 | 780.7 |
| 20260906184235 | 40 | 251 | 0.0 | 20.9 | 0.00 | 0.00 | 0.00 | 35 | 984.1 |
| 20260906183356 | 38 | 107 | 3.2 | 4.8 | 0.00 | 0.00 | 0.00 | 37 | 780.6 |
| 20260906183235 | 39 | 54 | 4.8 | 16.1 | 0.00 | 0.00 | 0.00 | 37 | 984.0 |
| 20260906182356 | 38 | 73 | 14.5 | 19.3 | 0.00 | 0.00 | 0.00 | 38 | 780.6 |
| 20260906182214 | 40 | 88 | 12.9 | 17.7 | 0.00 | 0.00 | 0.00 | 37 | 984.1 |
| 20260906181356 | 38 | 115 | 6.4 | 8.0 | 0.00 | 0.00 | 0.00 | 38 | 780.6 |
| 20260906181214 | 40 | 94 | 6.4 | 9.7 | 0.00 | 0.00 | 0.00 | 38 | 984.4 |
| 20260906180356 | 38 | 96 | 8.0 | 11.3 | 0.00 | 0.00 | 0.00 | 37 | 780.7 |
| 20260906180213 | 40 | 107 | 4.8 | 12.9 | 0.00 | 0.00 | 0.00 | 36 | 984.5 |
| 20260906175356 | 38 | 129 | 3.2 | 4.8 | 0.00 | 0.00 | 0.00 | 37 | 780.7 |
| 20260906175152 | 40 | 226 | 8.0 | 9.7 | 0.00 | 0.00 | 0.00 | 36 | 984.9 |
| 20260906174355 | 37 | 133 | 1.6 | 3.2 | 0.00 | 0.00 | 0.00 | 37 | 780.6 |
| 20260906174152 | 38 | 164 | 14.5 | 14.5 | 0.00 | 0.00 | 0.00 | 37 | 985.0 |
| 20260906173355 | 37 | 116 | 4.8 | 9.7 | 0.00 | 0.00 | 0.00 | 39 | 780.6 |
| 20260906173152 | 40 | 166 | 4.8 | 11.3 | 0.00 | 0.00 | 0.00 | 38 | 985.0 |
| 20260906172355 | 37 | 224 | 3.2 | 4.8 | 0.00 | 0.00 | 0.00 | 40 | 780.5 |
| 20260906172152 | 38 | 16 | 3.2 | 14.5 | 0.00 | 0.00 | 0.00 | 39 | 985.2 |
| 20260906171355 | 37 | 100 | 4.8 | 6.4 | 0.00 | 0.00 | 0.00 | 39 | 780.5 |
| 20260906171152 | 38 | 179 | 6.4 | 9.7 | 0.00 | 0.00 | 0.00 | 38 | 985.4 |
| 20260906170334 | 36 | 89 | 4.8 | 8.0 | 0.00 | 0.00 | 0.00 | 41 | 780.5 |
| 20260906170131 | 37 | 239 | 8.0 | 9.7 | 0.00 | 0.00 | 0.00 | 39 | 985.4 |
| 20260906165334 | 36 | 90 | 8.0 | 12.9 | 0.00 | 0.00 | 0.00 | 43 | 780.4 |
| 20260906165130 | 37 | 7 | 4.8 | 20.9 | 0.00 | 0.00 | 0.00 | 41 | 985.5 |
| 20260906164334 | 36 | 38 | 4.8 | 6.4 | 0.00 | 0.00 | 0.00 | 43 | 780.4 |
| 20260906164130 | 37 | 355 | 14.5 | 17.7 | 0.00 | 0.00 | 0.00 | 41 | 985.8 |
| 20260906163333 | 36 | 39 | 0.0 | 1.6 | 0.00 | 0.00 | 0.00 | 44 | 780.4 |
| 20260906163130 | 37 | 65 | 6.4 | 16.1 | 0.00 | 0.00 | 0.00 | 43 | 986.0 |
| 20260906162333 | 35 | 65 | 9.7 | 12.9 | 0.00 | 0.00 | 0.00 | 45 | 780.3 |
| 20260906162130 | 37 | 97 | 6.4 | 8.0 | 0.00 | 0.00 | 0.00 | 43 | 985.7 |
| 20260906161312 | 35 | 65 | 8.0 | 9.7 | 0.00 | 0.00 | 0.00 | 46 | 780.2 |
| 20260906161130 | 36 | 74 | 6.4 | 12.9 | 0.00 | 0.00 | 0.00 | 45 | 985.7 |
| 20260906160312 | 35 | 60 | 8.0 | 9.7 | 0.00 | 0.00 | 0.00 | 47 | 780.2 |
| 20260906160109 | 37 | 9 | 9.7 | 14.5 | 0.00 | 0.00 | 0.00 | 44 | 985.7 |
| 20260906155312 | 35 | 240 | 0.0 | 4.8 | 0.00 | 0.00 | 0.00 | 48 | 780.2 |
| 20260906155108 | 37 | 298 | 4.8 | 8.0 | 0.00 | 0.00 | 0.00 | 45 | 985.8 |
| 20260906154312 | 33 | 317 | 4.8 | 6.4 | 0.00 | 0.00 | 0.00 | 50 | 780.1 |
| 20260906154108 | 36 | 347 | 8.0 | 14.5 | 0.00 | 0.00 | 0.00 | 47 | 985.8 |
| 20260906153311 | 33 | 227 | 3.2 | 6.4 | 0.00 | 0.00 | 0.00 | 52 | 780.1 |
| 20260906153108 | 35 | 10 | 9.7 | 12.9 | 0.00 | 0.00 | 0.00 | 48 | 985.7 |
| 20260906152250 | 32 | 210 | 4.8 | 6.4 | 0.00 | 0.00 | 0.00 | 55 | 779.9 |
| 20260906152047 | 35 | 223 | 4.8 | 6.4 | 0.00 | 0.00 | 0.00 | 49 | 985.8 |
| 20260906151250 | 32 | 290 | 4.8 | 8.0 | 0.00 | 0.00 | 0.00 | 56 | 779.9 |
| 20260906151046 | 34 | 354 | 8.0 | 9.7 | 0.00 | 0.00 | 0.00 | 52 | 985.7 |
| 20260906150250 | 31 | 226 | 4.8 | 6.4 | 0.00 | 0.00 | 0.00 | 58 | 779.8 |
| 20260906150046 | 32 | 323 | 6.4 | 6.4 | 0.00 | 0.00 | 0.00 | 56 | 985.5 |
| 20260906145250 | 31 | 233 | 4.8 | 6.4 | 0.00 | 0.00 | 0.00 | 59 | 779.7 |
| 20260906145046 | 32 | 236 | 3.2 | 9.7 | 0.00 | 0.00 | 0.00 | 56 | 985.6 |
| 20260906144250 | 30 | 235 | 4.8 | 8.0 | 0.00 | 0.00 | 0.00 | 60 | 779.7 |
| 20260906144046 | 32 | 230 | 4.8 | 6.4 | 0.00 | 0.00 | 0.00 | 56 | 985.8 |
| 20260906143229 | 30 | 205 | 1.6 | 3.2 | 0.00 | 0.00 | 0.00 | 62 | 779.7 |
| 20260906143046 | 32 | 320 | 6.4 | 8.0 | 0.00 | 0.00 | 0.00 | 58 | 985.7 |
| 20260906142208 | 29 | 252 | 1.6 | 4.8 | 0.00 | 0.00 | 0.00 | 64 | 779.6 |
| 20260906142046 | 31 | 319 | 8.0 | 8.0 | 0.00 | 0.00 | 0.00 | 59 | 985.9 |
| 20260906141208 | 28 | 189 | 3.2 | 4.8 | 0.00 | 0.00 | 0.00 | 65 | 779.5 |
| 20260906141045 | 31 | 217 | 0.0 | 3.2 | 0.00 | 0.00 | 0.00 | 60 | 985.7 |
| 20260906140207 | 28 | 226 | 3.2 | 4.8 | 0.00 | 0.00 | 0.00 | 66 | 779.4 |
| 20260906140045 | 30 | 133 | 3.2 | 4.8 | 0.00 | 0.00 | 0.00 | 62 | 985.5 |
| 20260906135207 | 27 | 239 | 4.8 | 6.4 | 0.00 | 0.00 | 0.00 | 67 | 779.4 |
| 20260906135024 | 30 | 144 | 3.2 | 8.0 | 0.00 | 0.00 | 0.00 | 62 | 985.5 |
| 20260906134207 | 27 | 235 | 3.2 | 4.8 | 0.00 | 0.00 | 0.00 | 70 | 779.3 |
| 20260906134024 | 30 | 131 | 0.0 | 4.8 | 0.00 | 0.00 | 0.00 | 64 | 985.5 |
| 20260906133207 | 26 | 106 | 0.0 | 1.6 | 0.00 | 0.00 | 0.00 | 72 | 779.2 |
| 20260906133024 | 29 | 70 | 3.2 | 6.4 | 0.00 | 0.00 | 0.00 | 65 | 985.5 |
| 20260906132146 | 26 | 224 | 0.0 | 1.6 | 0.00 | 0.00 | 0.00 | 74 | 779.1 |
| 20260906132024 | 27 | 128 | 0.0 | 3.2 | 0.00 | 0.00 | 0.00 | 69 | 985.2 |
| 20260906131146 | 25 | 118 | 0.0 | 0.0 | 0.00 | 0.00 | 0.00 | 76 | 779.0 |
| 20260906131023 | 27 | 57 | 4.8 | 8.0 | 0.00 | 0.00 | 0.00 | 72 | 985.2 |
| 20260906130145 | 24 | 0 | 0.0 | 0.0 | 0.00 | 0.00 | 0.00 | 79 | 779.0 |
| 20260906130023 | 26 | 96 | 3.2 | 8.0 | 0.00 | 0.00 | 0.00 | 75 | 985.1 |
| 20260906125145 | 23 | 52 | 1.6 | 1.6 | 0.00 | 0.00 | 0.00 | 80 | 778.9 |
| 20260906125022 | 26 | 54 | 6.4 | 8.0 | 0.00 | 0.00 | 0.00 | 76 | 985.0 |
| 20260906124145 | 23 | 0 | 0.0 | 0.0 | 0.00 | 0.00 | 0.00 | 80 | 778.8 |
| 20260906124022 | 25 | 82 | 4.8 | 4.8 | 0.00 | 0.00 | 0.00 | 79 | 984.8 |
| 20260906123145 | 23 | 0 | 0.0 | 0.0 | 0.00 | 0.00 | 0.00 | 81 | 778.8 |
| 20260906123001 | 23 | 37 | 0.0 | 6.4 | 0.00 | 0.00 | 0.00 | 85 | 984.7 |
| 20260906122145 | 23 | 0 | 0.0 | 0.0 | 0.00 | 0.00 | 0.00 | 80 | 778.8 |
| 20260906122001 | 22 | 68 | 3.2 | 3.2 | 0.00 | 0.00 | 0.00 | 88 | 984.7 |
| 20260906121145 | 23 | 0 | 0.0 | 0.0 | 0.00 | 0.00 | 0.00 | 80 | 778.8 |
| 20260906121000 | 22 | 28 | 3.2 | 4.8 | 0.00 | 0.00 | 0.00 | 88 | 984.7 |
| 20260906120145 | 23 | 0 | 0.0 | 0.0 | 0.00 | 0.00 | 0.00 | 80 | 778.8 |
| 20260906120000 | 22 | 58 | 0.0 | 4.8 | 0.00 | 0.00 | 0.00 | 88 | 984.5 |
| 20260906115144 | 23 | 0 | 0.0 | 0.0 | 0.00 | 0.00 | 0.00 | 80 | 778.8 |
| 20260906114939 | 22 | 63 | 0.0 | 0.0 | 0.00 | 0.00 | 0.00 | 87 | 984.3 |
| 20260906114144 | 23 | 0 | 0.0 | 0.0 | 0.00 | 0.00 | 0.00 | 79 | 778.8 |
| 20260906113939 | 22 | 128 | 3.2 | 4.8 | 0.00 | 0.00 | 0.00 | 87 | 984.2 |
| 20260906113144 | 23 | 0 | 0.0 | 0.0 | 0.00 | 0.00 | 0.00 | 79 | 778.8 |
| 20260906112918 | 22 | 3 | 0.0 | 3.2 | 0.00 | 0.00 | 0.00 | 87 | 984.3 |
| 20260906112144 | 23 | 0 | 0.0 | 0.0 | 0.00 | 0.00 | 0.00 | 79 | 778.8 |
| 20260906111856 | 22 | 56 | 3.2 | 4.8 | 0.00 | 0.00 | 0.00 | 86 | 984.1 |
| 20260906111144 | 23 | 0 | 0.0 | 0.0 | 0.00 | 0.00 | 0.00 | 79 | 778.8 |
| 20260906110856 | 22 | 147 | 0.0 | 0.0 | 0.00 | 0.00 | 0.00 | 87 | 984.1 |
| 20260906110144 | 23 | 0 | 0.0 | 0.0 | 0.00 | 0.00 | 0.00 | 79 | 778.8 |
| 20260906105856 | 23 | 94 | 3.2 | 3.2 | 0.00 | 0.00 | 0.00 | 86 | 984.0 |
| 20260906105144 | 23 | 0 | 0.0 | 0.0 | 0.00 | 0.00 | 0.00 | 79 | 778.8 |
| 20260906104856 | 23 | 25 | 0.0 | 3.2 | 0.00 | 0.00 | 0.00 | 86 | 984.1 |
| 20260906104144 | 23 | 0 | 0.0 | 0.0 | 0.00 | 0.00 | 0.00 | 78 | 778.8 |
| 20260906103856 | 23 | 18 | 0.0 | 0.0 | 0.00 | 0.00 | 0.00 | 86 | 984.0 |
| 20260906103144 | 24 | 0 | 0.0 | 0.0 | 0.00 | 0.00 | 0.00 | 78 | 778.9 |
| 20260906102855 | 23 | 117 | 0.0 | 4.8 | 0.00 | 0.00 | 0.00 | 85 | 984.1 |
| 20260906102123 | 24 | 124 | 0.0 | 1.6 | 0.00 | 0.00 | 0.00 | 78 | 778.9 |
| 20260906101834 | 23 | 25 | 0.0 | 4.8 | 0.00 | 0.00 | 0.00 | 85 | 983.9 |
| 20260906101123 | 24 | 0 | 0.0 | 0.0 | 0.00 | 0.00 | 0.00 | 78 | 778.9 |
| 20260906100834 | 23 | 25 | 0.0 | 0.0 | 0.00 | 0.00 | 0.00 | 86 | 983.9 |
| 20260906100122 | 24 | 0 | 0.0 | 0.0 | 0.00 | 0.00 | 0.00 | 78 | 778.9 |
| 20260906095834 | 23 | 15 | 0.0 | 0.0 | 0.00 | 0.00 | 0.00 | 85 | 984.0 |
| 20260906095122 | 24 | 38 | 0.0 | 1.6 | 0.00 | 0.00 | 0.00 | 78 | 778.9 |
| 20260906094834 | 23 | 37 | 0.0 | 0.0 | 0.00 | 0.00 | 0.00 | 85 | 984.0 |
| 20260906094122 | 24 | 0 | 0.0 | 0.0 | 0.00 | 0.00 | 0.00 | 77 | 778.9 |
| 20260906093834 | 23 | 62 | 0.0 | 0.0 | 0.00 | 0.00 | 0.00 | 84 | 983.9 |
| 20260906093122 | 25 | 0 | 0.0 | 0.0 | 0.00 | 0.00 | 0.00 | 77 | 778.9 |
| 20260906092812 | 23 | 25 | 0.0 | 0.0 | 0.00 | 0.00 | 0.00 | 84 | 983.8 |
| 20260906092122 | 25 | 60 | 0.0 | 1.6 | 0.00 | 0.00 | 0.00 | 77 | 778.9 |
| 20260906091812 | 23 | 37 | 0.0 | 0.0 | 0.00 | 0.00 | 0.00 | 83 | 983.4 |
| 20260906091101 | 25 | 0 | 0.0 | 0.0 | 0.00 | 0.00 | 0.00 | 76 | 778.9 |
| 20260906090812 | 23 | 25 | 0.0 | 0.0 | 0.00 | 0.00 | 0.00 | 83 | 983.5 |
| 20260906090100 | 25 | 0 | 0.0 | 0.0 | 0.00 | 0.00 | 0.00 | 76 | 779.0 |
| 20260906085812 | 23 | 50 | 0.0 | 3.2 | 0.00 | 0.00 | 0.00 | 82 | 983.5 |
| 20260906085100 | 25 | 110 | 0.0 | 3.2 | 0.00 | 0.00 | 0.00 | 75 | 779.0 |
| 20260906084812 | 23 | 75 | 0.0 | 3.2 | 0.00 | 0.00 | 0.00 | 81 | 983.3 |
| 20260906084100 | 25 | 0 | 0.0 | 0.0 | 0.00 | 0.00 | 0.00 | 74 | 779.0 |
| 20260906083751 | 24 | 44 | 0.0 | 0.0 | 0.00 | 0.00 | 0.00 | 80 | 983.3 |
| 20260906083100 | 25 | 231 | 0.0 | 1.6 | 0.00 | 0.00 | 0.00 | 74 | 779.0 |
| 20260906082751 | 24 | 32 | 0.0 | 0.0 | 0.00 | 0.00 | 0.00 | 80 | 983.4 |
| 20260906082039 | 25 | 0 | 0.0 | 0.0 | 0.00 | 0.00 | 0.00 | 73 | 779.0 |
| 20260906081750 | 24 | 46 | 0.0 | 3.2 | 0.00 | 0.00 | 0.00 | 79 | 983.4 |
| 20260906081038 | 25 | 0 | 0.0 | 0.0 | 0.00 | 0.00 | 0.00 | 73 | 779.0 |
| 20260906080750 | 25 | 37 | 0.0 | 0.0 | 0.00 | 0.00 | 0.00 | 78 | 983.4 |
| 20260906075729 | 25 | 284 | 0.0 | 0.0 | 0.00 | 0.00 | 0.00 | 78 | 983.5 |
| 20260906075038 | 25 | 0 | 0.0 | 0.0 | 0.00 | 0.00 | 0.00 | 73 | 779.0 |
| 20260906074729 | 25 | 75 | 0.0 | 0.0 | 0.00 | 0.00 | 0.00 | 78 | 983.4 |
| 20260906074038 | 26 | 0 | 0.0 | 0.0 | 0.00 | 0.00 | 0.00 | 72 | 779.1 |
| 20260906073728 | 25 | 66 | 0.0 | 0.0 | 0.00 | 0.00 | 0.00 | 77 | 983.4 |
| 20260906073038 | 26 | 0 | 0.0 | 0.0 | 0.00 | 0.00 | 0.00 | 72 | 779.1 |
| 20260906072728 | 25 | 54 | 0.0 | 3.2 | 0.00 | 0.00 | 0.00 | 77 | 983.4 |
| 20260906072038 | 26 | 0 | 0.0 | 0.0 | 0.00 | 0.00 | 0.00 | 71 | 779.1 |
| 20260906071728 | 25 | 75 | 0.0 | 0.0 | 0.00 | 0.00 | 0.00 | 76 | 983.4 |
| 20260906071038 | 26 | 0 | 0.0 | 0.0 | 0.00 | 0.00 | 0.00 | 71 | 779.1 |
| 20260906070707 | 25 | 333 | 0.0 | 0.0 | 0.00 | 0.00 | 0.00 | 74 | 983.2 |
| 20260906070038 | 26 | 0 | 0.0 | 0.0 | 0.00 | 0.00 | 0.00 | 70 | 779.1 |
| 20260906065707 | 26 | 40 | 3.2 | 3.2 | 0.00 | 0.00 | 0.00 | 75 | 983.2 |
| 20260906065037 | 26 | 0 | 0.0 | 0.0 | 0.00 | 0.00 | 0.00 | 70 | 779.1 |
| 20260906064707 | 25 | 62 | 0.0 | 0.0 | 0.00 | 0.00 | 0.00 | 75 | 983.2 |
| 20260906064037 | 26 | 0 | 0.0 | 0.0 | 0.00 | 0.00 | 0.00 | 68 | 779.2 |
| 20260906063707 | 26 | 75 | 0.0 | 3.2 | 0.00 | 0.00 | 0.00 | 73 | 983.2 |
| 20260906063037 | 27 | 0 | 0.0 | 0.0 | 0.00 | 0.00 | 0.00 | 68 | 779.2 |
| 20260906062706 | 26 | 32 | 0.0 | 0.0 | 0.00 | 0.00 | 0.00 | 72 | 983.3 |
| 20260906062037 | 27 | 262 | 0.0 | 1.6 | 0.00 | 0.00 | 0.00 | 68 | 779.2 |
| 20260906061706 | 26 | 333 | 0.0 | 0.0 | 0.00 | 0.00 | 0.00 | 72 | 983.4 |
| 20260906061037 | 27 | 0 | 0.0 | 0.0 | 0.00 | 0.00 | 0.00 | 67 | 779.2 |
| 20260906060706 | 26 | 338 | 3.2 | 4.8 | 0.00 | 0.00 | 0.00 | 71 | 983.3 |
| 20260906060037 | 27 | 331 | 0.0 | 0.0 | 0.00 | 0.00 | 0.00 | 67 | 779.3 |
| 20260906055706 | 26 | 22 | 0.0 | 3.2 | 0.00 | 0.00 | 0.00 | 71 | 983.3 |
| 20260906055037 | 27 | 0 | 0.0 | 0.0 | 0.00 | 0.00 | 0.00 | 65 | 779.3 |
| 20260906054644 | 26 | 25 | 0.0 | 0.0 | 0.00 | 0.00 | 0.00 | 70 | 983.3 |
| 20260906054036 | 27 | 52 | 0.0 | 3.2 | 0.00 | 0.00 | 0.00 | 65 | 779.3 |
| 20260906053644 | 26 | 59 | 3.2 | 4.8 | 0.00 | 0.00 | 0.00 | 70 | 983.2 |
| 20260906053036 | 28 | 0 | 0.0 | 0.0 | 0.00 | 0.00 | 0.00 | 63 | 779.4 |
| 20260906052644 | 26 | 50 | 0.0 | 0.0 | 0.00 | 0.00 | 0.00 | 69 | 983.0 |
| 20260906052036 | 28 | 0 | 0.0 | 0.0 | 0.00 | 0.00 | 0.00 | 63 | 779.4 |
| 20260906051644 | 27 | 61 | 3.2 | 3.2 | 0.00 | 0.00 | 0.00 | 68 | 982.9 |
| 20260906051036 | 28 | 0 | 0.0 | 0.0 | 0.00 | 0.00 | 0.00 | 63 | 779.4 |
| 20260906050644 | 27 | 297 | 0.0 | 0.0 | 0.00 | 0.00 | 0.00 | 67 | 983.0 |
| 20260906050015 | 28 | 0 | 0.0 | 0.0 | 0.00 | 0.00 | 0.00 | 62 | 779.4 |
| 20260906045644 | 27 | 322 | 0.0 | 0.0 | 0.00 | 0.00 | 0.00 | 65 | 983.1 |
| 20260906045015 | 29 | 92 | 0.0 | 1.6 | 0.00 | 0.00 | 0.00 | 60 | 779.5 |
| 20260906044622 | 28 | 96 | 0.0 | 3.2 | 0.00 | 0.00 | 0.00 | 64 | 983.3 |
| 20260906044015 | 30 | 0 | 0.0 | 0.0 | 0.00 | 0.00 | 0.00 | 58 | 779.6 |
| 20260906043622 | 28 | 4 | 0.0 | 4.8 | 0.00 | 0.00 | 0.00 | 63 | 983.3 |
| 20260906043015 | 30 | 107 | 1.6 | 1.6 | 0.00 | 0.00 | 0.00 | 57 | 779.6 |
| 20260906042622 | 28 | 117 | 0.0 | 0.0 | 0.00 | 0.00 | 0.00 | 61 | 983.3 |
| 20260906042014 | 30 | 0 | 0.0 | 0.0 | 0.00 | 0.00 | 0.00 | 55 | 779.7 |
| 20260906041622 | 29 | 216 | 0.0 | 0.0 | 0.00 | 0.00 | 0.00 | 59 | 983.2 |
| 20260906041014 | 31 | 106 | 1.6 | 1.6 | 0.00 | 0.00 | 0.00 | 55 | 779.7 |
| 20260906040622 | 30 | 224 | 0.0 | 4.8 | 0.00 | 0.00 | 0.00 | 57 | 983.2 |
| 20260906035953 | 31 | 0 | 0.0 | 0.0 | 0.00 | 0.00 | 0.00 | 55 | 779.7 |
| 20260906035622 | 30 | 113 | 3.2 | 3.2 | 0.00 | 0.00 | 0.00 | 58 | 983.2 |
| 20260906034932 | 31 | 0 | 0.0 | 0.0 | 0.00 | 0.00 | 0.00 | 54 | 779.7 |
| 20260906034622 | 30 | 89 | 0.0 | 6.4 | 0.00 | 0.00 | 0.00 | 58 | 983.0 |
| 20260906033911 | 32 | 109 | 0.0 | 3.2 | 0.00 | 0.00 | 0.00 | 52 | 779.8 |
| 20260906033621 | 31 | 92 | 0.0 | 0.0 | 0.00 | 0.00 | 0.00 | 54 | 982.9 |
| 20260906032849 | 32 | 138 | 1.6 | 3.2 | 0.00 | 0.00 | 0.00 | 51 | 779.9 |
| 20260906032621 | 31 | 159 | 0.0 | 6.4 | 0.00 | 0.00 | 0.00 | 53 | 983.1 |
| 20260906031849 | 32 | 100 | 1.6 | 1.6 | 0.00 | 0.00 | 0.00 | 50 | 779.9 |
| 20260906031621 | 32 | 147 | 0.0 | 4.8 | 0.00 | 0.00 | 0.00 | 51 | 983.2 |
| 20260906030849 | 32 | 214 | 4.8 | 6.4 | 0.00 | 0.00 | 0.00 | 49 | 779.9 |
| 20260906030600 | 32 | 180 | 3.2 | 6.4 | 0.00 | 0.00 | 0.00 | 50 | 983.2 |
| 20260906025828 | 32 | 188 | 6.4 | 8.0 | 0.00 | 0.00 | 0.00 | 49 | 779.9 |
| 20260906025600 | 32 | 210 | 8.0 | 8.0 | 0.00 | 0.00 | 0.00 | 50 | 983.0 |
| 20260906024807 | 32 | 197 | 4.8 | 8.0 | 0.00 | 0.00 | 0.00 | 49 | 779.9 |
| 20260906024600 | 32 | 224 | 0.0 | 8.0 | 0.00 | 0.00 | 0.00 | 50 | 983.0 |
| 20260906023807 | 32 | 193 | 4.8 | 9.7 | 0.00 | 0.00 | 0.00 | 48 | 779.9 |
| 20260906023600 | 32 | 135 | 4.8 | 11.3 | 0.00 | 0.00 | 0.00 | 50 | 983.0 |
| 20260906022806 | 32 | 200 | 3.2 | 4.8 | 0.00 | 0.00 | 0.00 | 48 | 780.0 |
| 20260906022559 | 32 | 208 | 0.0 | 4.8 | 0.00 | 0.00 | 0.00 | 50 | 983.0 |
| 20260906021806 | 32 | 118 | 4.8 | 4.8 | 0.00 | 0.00 | 0.00 | 48 | 779.9 |
| 20260906021538 | 31 | 77 | 4.8 | 4.8 | 0.00 | 0.00 | 0.00 | 53 | 982.8 |
| 20260906020806 | 32 | 125 | 1.6 | 3.2 | 0.00 | 0.00 | 0.00 | 50 | 779.9 |
| 20260906020538 | 31 | 88 | 8.0 | 9.7 | 0.00 | 0.00 | 0.00 | 53 | 982.7 |
| 20260906015806 | 32 | 0 | 0.0 | 0.0 | 0.00 | 0.00 | 0.00 | 47 | 779.9 |
| 20260906015538 | 31 | 38 | 0.0 | 0.0 | 0.00 | 0.00 | 0.00 | 52 | 982.6 |
| 20260906014806 | 33 | 0 | 0.0 | 0.0 | 0.00 | 0.00 | 0.00 | 46 | 780.0 |
| 20260906014538 | 31 | 230 | 0.0 | 0.0 | 0.00 | 0.00 | 0.00 | 51 | 982.4 |
| 20260906013806 | 33 | 0 | 0.0 | 0.0 | 0.00 | 0.00 | 0.00 | 46 | 780.0 |
| 20260906013538 | 31 | 193 | 0.0 | 0.0 | 0.00 | 0.00 | 0.00 | 50 | 982.3 |
| 20260906012806 | 33 | 0 | 0.0 | 0.0 | 0.00 | 0.00 | 0.00 | 45 | 780.0 |
| 20260906012537 | 32 | 193 | 0.0 | 0.0 | 0.00 | 0.00 | 0.00 | 49 | 982.0 |
| 20260906011806 | 33 | 0 | 0.0 | 0.0 | 0.00 | 0.00 | 0.00 | 46 | 780.0 |
| 20260906011516 | 32 | 224 | 0.0 | 0.0 | 0.00 | 0.00 | 0.00 | 48 | 982.2 |
| 20260906010805 | 34 | 95 | 0.0 | 1.6 | 0.00 | 0.00 | 0.00 | 42 | 780.1 |
| 20260906010516 | 32 | 224 | 0.0 | 0.0 | 0.00 | 0.00 | 0.00 | 46 | 982.0 |
| 20260906005805 | 35 | 0 | 0.0 | 0.0 | 0.00 | 0.00 | 0.00 | 40 | 780.2 |
| 20260906005455 | 33 | 224 | 0.0 | 0.0 | 0.00 | 0.00 | 0.00 | 45 | 982.2 |
| 20260906004744 | 36 | 0 | 0.0 | 0.0 | 0.00 | 0.00 | 0.00 | 38 | 780.3 |
| 20260906004454 | 33 | 224 | 0.0 | 0.0 | 0.00 | 0.00 | 0.00 | 42 | 981.7 |
| 20260906003744 | 36 | 76 | 1.6 | 1.6 | 0.00 | 0.00 | 0.00 | 37 | 780.4 |
| 20260906003454 | 35 | 50 | 0.0 | 0.0 | 0.00 | 0.00 | 0.00 | 40 | 981.7 |
| 20260906002723 | 36 | 112 | 1.6 | 1.6 | 0.00 | 0.00 | 0.00 | 36 | 780.4 |
| 20260906002433 | 36 | 133 | 3.2 | 6.4 | 0.00 | 0.00 | 0.00 | 38 | 981.9 |
| 20260906001722 | 36 | 132 | 1.6 | 3.2 | 0.00 | 0.00 | 0.00 | 36 | 780.4 |
| 20260906001433 | 36 | 129 | 0.0 | 8.0 | 0.00 | 0.00 | 0.00 | 38 | 981.6 |
| 20260906000722 | 37 | 106 | 1.6 | 3.2 | 0.00 | 0.00 | 0.00 | 35 | 780.4 |
| 20260906000433 | 36 | 170 | 8.0 | 9.7 | 0.00 | 0.00 | 0.00 | 37 | 981.6 |
| 20260905235701 | 37 | 134 | 3.2 | 3.2 | 0.00 | 0.00 | 0.00 | 35 | 780.5 |
| 20260905235433 | 36 | 221 | 4.8 | 6.4 | 0.00 | 0.00 | 0.00 | 37 | 981.6 |
| 20260905234640 | 37 | 127 | 4.8 | 6.4 | 0.00 | 0.00 | 0.00 | 36 | 780.5 |
| 20260905234433 | 36 | 140 | 0.0 | 9.7 | 0.00 | 0.00 | 0.00 | 37 | 981.6 |
| 20260905233640 | 37 | 152 | 3.2 | 8.0 | 0.00 | 0.00 | 0.00 | 35 | 780.5 |
| 20260905233432 | 37 | 201 | 3.2 | 9.7 | 0.00 | 0.00 | 0.00 | 37 | 981.3 |
| 20260905232640 | 37 | 138 | 1.6 | 3.2 | 0.00 | 0.00 | 0.00 | 34 | 780.6 |
| 20260905232432 | 37 | 218 | 0.0 | 6.4 | 0.00 | 0.00 | 0.00 | 36 | 981.3 |
| 20260905231639 | 37 | 91 | 4.8 | 8.0 | 0.00 | 0.00 | 0.00 | 35 | 780.5 |
| 20260905231432 | 37 | 88 | 11.3 | 12.9 | 0.00 | 0.00 | 0.00 | 36 | 981.4 |
| 20260905230639 | 38 | 129 | 3.2 | 4.8 | 0.00 | 0.00 | 0.00 | 34 | 780.6 |
| 20260905230432 | 37 | 162 | 8.0 | 14.5 | 0.00 | 0.00 | 0.00 | 36 | 981.4 |
| 20260905225639 | 38 | 213 | 1.6 | 4.8 | 0.00 | 0.00 | 0.00 | 33 | 780.7 |
| 20260905225432 | 37 | 224 | 12.9 | 12.9 | 0.00 | 0.00 | 0.00 | 36 | 981.3 |
| 20260905224639 | 38 | 88 | 1.6 | 4.8 | 0.00 | 0.00 | 0.00 | 32 | 780.7 |
| 20260905224432 | 37 | 75 | 3.2 | 14.5 | 0.00 | 0.00 | 0.00 | 36 | 981.4 |
| 20260905223639 | 38 | 214 | 4.8 | 6.4 | 0.00 | 0.00 | 0.00 | 32 | 780.7 |
| 20260905223411 | 37 | 190 | 4.8 | 8.0 | 0.00 | 0.00 | 0.00 | 35 | 981.4 |
| 20260905222639 | 38 | 127 | 3.2 | 6.4 | 0.00 | 0.00 | 0.00 | 33 | 780.7 |
| 20260905222410 | 37 | 207 | 6.4 | 12.9 | 0.00 | 0.00 | 0.00 | 36 | 981.5 |
| 20260905221639 | 38 | 126 | 4.8 | 8.0 | 0.00 | 0.00 | 0.00 | 34 | 780.6 |
| 20260905221410 | 37 | 69 | 6.4 | 14.5 | 0.00 | 0.00 | 0.00 | 36 | 981.7 |
| 20260905220639 | 38 | 94 | 4.8 | 6.4 | 0.00 | 0.00 | 0.00 | 34 | 780.6 |
| 20260905220410 | 37 | 108 | 8.0 | 11.3 | 0.00 | 0.00 | 0.00 | 37 | 981.6 |
| 20260905215617 | 38 | 188 | 3.2 | 4.8 | 0.00 | 0.00 | 0.00 | 34 | 780.6 |
| 20260905215410 | 37 | 250 | 3.2 | 17.7 | 0.00 | 0.00 | 0.00 | 35 | 982.0 |
| 20260905214617 | 37 | 124 | 4.8 | 6.4 | 0.00 | 0.00 | 0.00 | 35 | 780.6 |
| 20260905214410 | 37 | 89 | 8.0 | 20.9 | 0.00 | 0.00 | 0.00 | 37 | 981.9 |
| 20260905213556 | 38 | 125 | 3.2 | 4.8 | 0.00 | 0.00 | 0.00 | 35 | 780.6 |
| 20260905213410 | 38 | 156 | 11.3 | 14.5 | 0.00 | 0.00 | 0.00 | 35 | 981.8 |
| 20260905212556 | 38 | 93 | 8.0 | 11.3 | 0.00 | 0.00 | 0.00 | 34 | 780.6 |
| 20260905212349 | 39 | 107 | 4.8 | 11.3 | 0.00 | 0.00 | 0.00 | 35 | 982.0 |
| 20260905211556 | 38 | 150 | 3.2 | 8.0 | 0.00 | 0.00 | 0.00 | 34 | 780.7 |
| 20260905211348 | 38 | 225 | 8.0 | 17.7 | 0.00 | 0.00 | 0.00 | 35 | 982.1 |
| 20260905210556 | 38 | 96 | 4.8 | 6.4 | 0.00 | 0.00 | 0.00 | 34 | 780.7 |
| 20260905210348 | 40 | 82 | 8.0 | 9.7 | 0.00 | 0.00 | 0.00 | 35 | 982.2 |
| 20260905205555 | 38 | 163 | 6.4 | 9.7 | 0.00 | 0.00 | 0.00 | 35 | 780.6 |
| 20260905205348 | 39 | 243 | 4.8 | 11.3 | 0.00 | 0.00 | 0.00 | 35 | 982.4 |
| 20260905204555 | 38 | 128 | 4.8 | 8.0 | 0.00 | 0.00 | 0.00 | 35 | 780.6 |
| 20260905204327 | 39 | 137 | 4.8 | 12.9 | 0.00 | 0.00 | 0.00 | 36 | 982.5 |
| 20260905203555 | 37 | 70 | 8.0 | 9.7 | 0.00 | 0.00 | 0.00 | 36 | 780.6 |
| 20260905203327 | 39 | 163 | 4.8 | 11.3 | 0.00 | 0.00 | 0.00 | 35 | 982.6 |
| 20260905202555 | 37 | 136 | 4.8 | 8.0 | 0.00 | 0.00 | 0.00 | 36 | 780.6 |
| 20260905202326 | 38 | 91 | 9.7 | 16.1 | 0.00 | 0.00 | 0.00 | 36 | 982.9 |